This is the latest recevied weather packets stored in our database for station/object KJ4AJP. If no packets are shown the sender has not sent any weather packets the latest 10 day(s).
| Time | Temp. | Humidity | Pressure | Rain* | Wind** | Luminosity | Snow |
|---|---|---|---|---|---|---|---|
| 1777676650 | 17.22° C | 34% | 1015 hPa | 0 mm | - | 70 W/m² | - |
| 1777676347 | 17.22° C | 34% | 1014.9 hPa | 0 mm | - | 102 W/m² | - |
| 1777676045 | 17.22° C | 33% | 1014.9 hPa | 0 mm | - | 92 W/m² | - |
| 1777675740 | 17.78° C | 32% | 1014.8 hPa | 0 mm | - | 95 W/m² | - |
| 1777675438 | 17.78° C | 33% | 1014.9 hPa | 0 mm | - | 71 W/m² | - |
| 1777675134 | 17.78° C | 33% | 1014.8 hPa | 0 mm | - | 94 W/m² | - |
| 1777674831 | 17.78° C | 31% | 1014.9 hPa | 0 mm | - | 100 W/m² | - |
| 1777674527 | 17.78° C | 33% | 1014.5 hPa | 0 mm | - | 97 W/m² | - |
| 1777674225 | 17.78° C | 33% | 1014.6 hPa | 0 mm | - | 88 W/m² | - |
| 1777673921 | 17.78° C | 33% | 1014.6 hPa | 0 mm | - | 70 W/m² | - |
| 1777673618 | 18.33° C | 33% | 1014.8 hPa | 0 mm | - | 72 W/m² | - |
| 1777673316 | 18.33° C | 32% | 1014.5 hPa | 0 mm | - | 100 W/m² | - |
| 1777673013 | 18.33° C | 31% | 1014.5 hPa | 0 mm | - | 168 W/m² | - |
| 1777672709 | 18.89° C | 32% | 1014.5 hPa | 0 mm | - | 329 W/m² | - |
| 1777672406 | 18.33° C | 31% | 1014.6 hPa | 0 mm | - | 361 W/m² | - |
| 1777672101 | 18.89° C | 31% | 1014.7 hPa | 0 mm | - | 314 W/m² | - |
| 1777671796 | 18.89° C | 32% | 1014.8 hPa | 0 mm | - | 346 W/m² | - |
| 1777671493 | 18.89° C | 34% | 1014.8 hPa | 0 mm | - | 318 W/m² | - |
| 1777671189 | 18.89° C | 30% | 1015 hPa | 0 mm | - | 327 W/m² | - |
| 1777670885 | 19.44° C | 29% | 1014.7 hPa | 0 mm | - | 380 W/m² | - |
| 1777670582 | 19.44° C | 34% | 1014.5 hPa | 0 mm | - | 318 W/m² | - |
| 1777670279 | 18.89° C | 34% | 1014.7 hPa | 0 mm | - | 435 W/m² | - |
| 1777669977 | 18.89° C | 33% | 1014.9 hPa | 0 mm | - | 248 W/m² | - |
| 1777669673 | 19.44° C | 34% | 1014.8 hPa | 0 mm | - | 340 W/m² | - |
| 1777669369 | 19.44° C | 32% | 1015.2 hPa | 0 mm | - | 269 W/m² | - |
* Rain latest hour (hover to see other rain measurements)
** Current wind speed in m/s (hover to see current wind gust speed)